Volver al catálogo

BREEZE-M DEB

LostHEO
NORAD 38617·DEBRIS·🇷🇺 Russia

Lanzado Mar 14, 2008 desde Baikonur Cosmodrome

Loading…

Próximos Pases (próximas 24 horas)

TLE

ObsoletoSource: Space-Track

Época: Feb 15, 2022, 06:03 UTC

1 38617U 08011BQ  22046.25276585 -.00000267  00000-0 -17263-2 0  9997
2 38617  49.3879  20.4031 6389908 240.4559  42.0886  3.23969413123755

Sigue BREEZE-M DEB en tiempo real con AllMySat

Download on the App Store